Lexington Weather

Lexington, Massachusetts, USA

67°F
9/23/2021 4:20am 
  • Lexington Conditions: Overcast
  • Temperature: 66.7°F / 19.3°CWarmer 0.5°F than last hour.
  • Dew Point: 65.5°FIncreased 0.6°Fsince last hour.
  • Relative Humidity: 96
  • Wind: Calm, 10-min avg: Calm, gust: 2 mph
  • Barometer: 30.03 in Steady
  • Visibility: 10 miles
  • Rain Today: 0.00 in
  •   

Regional Weather Roundup
for Boston / Norton, MA

        
000
ASUS41 KBOX 190704
RWRBOX

REGIONAL WEATHER ROUNDUP
NATIONAL WEATHER SERVICE BOSTON/NORTON MA
300 AM EDT SUN SEP 19 2021

NOTE:  "FAIR" INDICATES FEW OR NO CLOUDS BELOW 12,000 FEET WITH NO 
SIGNIFICANT WEATHER AND/OR OBSTRUCTIONS TO VISIBILITY.

MAZALL-190800-
EASTERN MASSACHUSETTS
  
CITY           SKY/WX    TMP DP  RH WIND       PRES   REMARKS
BOSTON         NOT AVBL                                               
BEVERLY        CLOUDY    67  65  93 N8        30.02S                  
LAWRENCE       CLOUDY    66  63  90 N6        30.05S                  
BEDFORD        CLOUDY    67  65  93 NW8       30.03R                  
BLUE HILL      NOT AVBL                                               
NORWOOD        LGT RAIN  67  63  87 CALM      30.02S                  
MARSHFIELD     MOCLDY    66  66 100 NW7       30.00F                  
PLYMOUTH       CLOUDY    66  65  96 NW6       30.00F                  
TAUNTON        MOCLDY    65  64  97 CALM      30.00F FOG              
NEW BEDFORD    MOCLDY    66  65  96 N3        29.99F                  
$$

MAZALL-190800-
CAPE COD AND THE ISLANDS
  
CITY           SKY/WX    TMP DP  RH WIND       PRES   REMARKS
FALMOUTH       CLOUDY    64  64 100 N5        29.99S                  
HYANNIS        MOCLDY    67  66  97 N8        29.97S                  
CHATHAM        CLOUDY    66  65  96 VRB3      29.98S                  
PROVINCETOWN   CLOUDY    66  65  96 N12       30.00S                  
NANTUCKET      MOCLDY    70  66  87 N9        29.96F                  
MARTHAS VNYRD  MOCLDY    66  66 100 NW8       29.98F                  
$$
 
MAZALL-190800-
CENTRAL AND WESTERN MASSACHUSETTS
  
CITY           SKY/WX    TMP DP  RH WIND       PRES   REMARKS
WORCESTER      CLOUDY    64  56  75 NW9       30.06S                  
FITCHBURG      MOCLDY    64  59  83 NW7       30.05F                  
ORANGE         CLEAR     59  56  89 CALM      30.08F                  
SPRINGFIELD    CLEAR     64  53  68 N8        30.05S                  
WESTFIELD      CLEAR     62  59  90 NE6       30.07R                  
NORTH ADAMS    CLEAR     57  52  83 W5        30.12S                  
PITTSFIELD     CLEAR     56  52  86 NW8       30.10F                  
$$
 
RIZALL-190800-
RHODE ISLAND
  
CITY           SKY/WX    TMP DP  RH WIND       PRES   REMARKS
PROVIDENCE     MOCLDY    69  67  93 N6        30.02S                  
NEWPORT        CLEAR     66  65  96 N8        30.00S                  
BLOCK ISLAND   PTCLDY    66  65  96 N6        30.01S                  
SMITHFIELD     CLOUDY    66  65  96 N8        30.04R                  
WESTERLY       PTCLDY    64  64 100 N3        30.01S                  
$$
 
CTZALL-190800-
CONNECTICUT
  
CITY           SKY/WX    TMP DP  RH WIND       PRES   REMARKS
BRADLEY INTL   PTCLDY    64  59  83 N9        30.06S                  
HARTFORD       CLEAR     69  58  67 N7        30.05R                  
BRIDGEPORT     CLEAR     70  61  73 N10       30.04S                  
DANBURY        CLEAR     67  57  70 N7        30.09S                  
GROTON         CLEAR     68  66  93 N7        30.01S                  
NEW HAVEN      CLEAR     71  64  78 NW7       30.04S                  
CHESTER        FAIR      68  64  88 NW9       30.04S                  
MERIDEN        CLEAR     68  61  78 NW7       30.05S                  
WILLIMANTIC    CLEAR     66  64  93 N6        30.04S                  
OXFORD         CLEAR     64  60  87 N13       30.08S                  
$$

MEZ002-015-021-024-NHZ003-005-008-011-012-014-VTZ005-008-190800-
NORTHERN NEW ENGLAND
  
CITY           SKY/WX    TMP DP  RH WIND       PRES   REMARKS
PORTLAND ME    CLEAR     60  57  89 NW8       30.04F                  
BANGOR ME      CLEAR     56  49  77 N12       30.06R                  
CONCORD NH     MOCLDY    61  51  70 NW6       30.07R                  
MANCHESTER NH  MOCLDY    66  52  60 N6        30.03S                  
NASHUA NH      MOCLDY    63  59  87 NW6       30.05S                  
PORTSMOUTH NH  PTCLDY    63  59  86 N7        30.04F                  
JAFFREY NH     CLEAR     58  54  86 CALM      30.08S                  
KEENE NH       CLEAR     56  55  97 CALM      30.09S                  
BURLINGTON VT  CLEAR     51  50  96 CALM      30.14S                  
MT. WASHINGTON PTCLDY    43  -2  15 NW2         N/A                   
$$

NYZ052-076-190800-
EASTERN NEW YORK
  
CITY           SKY/WX    TMP DP  RH WIND       PRES   REMARKS
ALBANY         PTCLDY    56  56 100 N5        30.13R                  
NEW YORK CITY  PTCLDY    71  59  65 N9        30.06F                  
$$
 
ANZALL-190800-
MARINE OBSERVATIONS
  
STATION/POSITION TIME  TEMP    WIND        PRES    VSBY  WAVE
                       AIR SEA DIR/SP/G                  HT/PER
                 (UTC) (F)     (DEG/KT/KT) (MB)    (MI)  (FT/S)
BOSTON BUOY      0640      66  320/  8/ 10 1016.7R
BUZZARDS BAY     0600           20/ 11/ 11 1017.0R
NANTUCKET SOUND  0640   70 72  350/ 14/ 17 1014.9F
MASS BAY-STELLWA 0604   66     330/ 10/ 12 1015.7R  1 7/8  5/11
ISLE OF SHOALS   0600   67      10/ 17/ 19 1016.2R
S OF BLOCK IS    0626      71                N/A           5/10
$$

......................KEY.........................
  SKY/WX - SKY CONDITION/PRESENT WEATHER
  TMP    - TEMPERATURE IN FAHRENHEIT
  DWPT   - DEWPOINT IN FAHRENHEIT
  RH     - RELATIVE HUMIDITY IN PERCENT
  WIND   - DIRECTION AND SPEED IN MPH
  PRES   - MEAN SEA LEVEL PRESSURE IN INCHES OF HG
  WCI    - WIND CHILL INDEX
  VSB    - VISIBILITY IN MILES
  HX     - HEAT INDEX
  TC     - TEMPERATURE IN CELSIUS
  VRB    - VARIABLE WIND DIRECTION
  N/A    - NOT AVAILABLE
  
      

Other recent Regional Weather Roundups

Thu Sep 23, 4:04am

Thu Sep 23, 3:04am

Thu Sep 23, 2:04am

Thu Sep 23, 1:04am

Thu Sep 23, 12:04am

Wed Sep 22, 11:04pm

Wed Sep 22, 10:04pm

Wed Sep 22, 9:04pm

Wed Sep 22, 8:04pm

Wed Sep 22, 7:04pm

Wed Sep 22, 6:04pm

Wed Sep 22, 5:04pm

Wed Sep 22, 4:04pm

Wed Sep 22, 3:04pm

Wed Sep 22, 2:04pm

Wed Sep 22, 1:04pm

Wed Sep 22, 12:05pm

Wed Sep 22, 11:04am

Wed Sep 22, 10:04am

Wed Sep 22, 9:04am

Wed Sep 22, 8:04am

Wed Sep 22, 7:04am

Wed Sep 22, 6:04am

Wed Sep 22, 5:04am

Wed Sep 22, 4:04am

Wed Sep 22, 3:04am

Wed Sep 22, 2:04am

Wed Sep 22, 1:04am

Wed Sep 22, 12:04am

Tue Sep 21, 11:04pm

Tue Sep 21, 10:04pm

Tue Sep 21, 9:04pm

Tue Sep 21, 8:04pm

Tue Sep 21, 7:04pm

Tue Sep 21, 6:04pm

Tue Sep 21, 5:04pm

Tue Sep 21, 4:04pm

Tue Sep 21, 3:04pm

Tue Sep 21, 2:04pm

Tue Sep 21, 1:04pm

Tue Sep 21, 12:04pm

Tue Sep 21, 11:04am

Tue Sep 21, 10:04am

Tue Sep 21, 9:04am

Tue Sep 21, 8:04am

Tue Sep 21, 7:04am

Tue Sep 21, 6:04am

Tue Sep 21, 5:04am

Tue Sep 21, 4:04am

Tue Sep 21, 3:04am

Tue Sep 21, 2:04am

Tue Sep 21, 1:04am

Tue Sep 21, 12:04am

Mon Sep 20, 11:04pm

Mon Sep 20, 10:04pm

Mon Sep 20, 9:04pm

Mon Sep 20, 8:04pm

Mon Sep 20, 7:04pm

Mon Sep 20, 6:04pm

Mon Sep 20, 5:04pm

Mon Sep 20, 4:04pm

Mon Sep 20, 3:04pm

Mon Sep 20, 2:04pm

Mon Sep 20, 1:04pm

Mon Sep 20, 12:04pm

Mon Sep 20, 11:04am

Mon Sep 20, 10:04am

Mon Sep 20, 9:04am

Mon Sep 20, 7:04am

Mon Sep 20, 6:04am

Mon Sep 20, 5:04am

Mon Sep 20, 4:04am

Mon Sep 20, 3:04am

Mon Sep 20, 2:04am

Mon Sep 20, 1:04am

Mon Sep 20, 12:04am

Sun Sep 19, 11:04pm

Sun Sep 19, 10:04pm

Sun Sep 19, 9:04pm

Sun Sep 19, 8:04pm

Sun Sep 19, 7:04pm

Sun Sep 19, 6:04pm

Sun Sep 19, 5:04pm

Sun Sep 19, 4:04pm

Sun Sep 19, 3:04pm

Sun Sep 19, 2:05pm

Sun Sep 19, 1:04pm

Sun Sep 19, 12:04pm

Sun Sep 19, 11:04am

Sun Sep 19, 10:05am

Sun Sep 19, 9:04am

Sun Sep 19, 8:04am

Sun Sep 19, 7:04am

Sun Sep 19, 6:04am

Sun Sep 19, 5:04am

Sun Sep 19, 4:04am

Sun Sep 19, 2:04am

Sun Sep 19, 1:04am

Sun Sep 19, 12:04am

Sat Sep 18, 11:05pm

Sat Sep 18, 10:04pm

Sat Sep 18, 9:04pm

Sat Sep 18, 8:04pm

Sat Sep 18, 7:04pm

Sat Sep 18, 6:04pm

Sat Sep 18, 5:04pm

Sat Sep 18, 4:04pm

Sat Sep 18, 3:04pm

Sat Sep 18, 2:04pm

Sat Sep 18, 1:04pm

Sat Sep 18, 12:04pm

Sat Sep 18, 11:04am

Sat Sep 18, 10:04am

Sat Sep 18, 9:04am

Sat Sep 18, 8:04am

Sat Sep 18, 7:04am

Sat Sep 18, 6:04am

Sat Sep 18, 5:04am

Sat Sep 18, 4:04am

Sat Sep 18, 3:04am

Sat Sep 18, 2:04am

Sat Sep 18, 1:04am

Sat Sep 18, 12:04am

Fri Sep 17, 11:04pm

Fri Sep 17, 10:04pm

Fri Sep 17, 9:04pm

Fri Sep 17, 8:04pm

Fri Sep 17, 7:04pm

Fri Sep 17, 6:04pm

Fri Sep 17, 5:04pm

Fri Sep 17, 4:04pm

Fri Sep 17, 3:04pm

Fri Sep 17, 2:04pm

Fri Sep 17, 1:04pm

Fri Sep 17, 12:05pm

Fri Sep 17, 11:04am

Fri Sep 17, 10:04am

Fri Sep 17, 9:04am

Fri Sep 17, 8:04am

Fri Sep 17, 7:04am

Fri Sep 17, 6:04am

Fri Sep 17, 5:04am

Fri Sep 17, 4:04am

Fri Sep 17, 3:04am

Fri Sep 17, 2:04am

Fri Sep 17, 1:04am

Fri Sep 17, 12:04am

Thu Sep 16, 11:04pm

Thu Sep 16, 10:04pm

Thu Sep 16, 9:04pm

Thu Sep 16, 8:04pm

Thu Sep 16, 7:04pm

Thu Sep 16, 6:04pm

Thu Sep 16, 5:04pm

Thu Sep 16, 4:04pm

Thu Sep 16, 3:04pm

Thu Sep 16, 2:04pm

Thu Sep 16, 1:05pm

Thu Sep 16, 12:04pm

Thu Sep 16, 11:05am

Thu Sep 16, 10:05am

Thu Sep 16, 9:04am

Thu Sep 16, 8:04am

Thu Sep 16, 7:04am

Thu Sep 16, 6:04am

Thu Sep 16, 5:04am

Meta data:

ID: 19adaa2d-8829-4a4a-b2ea-c7e58ae08333
Link: https://api.weather.gov/products/19adaa2d-8829-4a4a-b2ea-c7e58ae08333